Chan Gurney Municipal Airport
KYKN : now visible

Airfield :











YOU CAN JOIN US ON...

 
LOGIN :

Register | Disclaimer

   EN    FR    IT 

 









Legend :    VFR   Marginal VFR   IFR   Intensive IFR   Very Intensive IFR
Visi :
Ceiling :
>= 8 km
>= 3000ft
5 to 8 km
1000 to 3000 ft
1500m to 5 km
500 to 1000 ft
800 to 1500m
200 to 500 ft
< 800m
< 200 ft
Symbols :   Thunderstorms  Fog  Heavy snow  Heavy precipitations  Wind > 20 kt






- Airport Elevation : 1306 ft


KYKN - Chan Gurney Municipal

CURRENT METAR :
  • 180556Z AUTO 31007KT 10SM CLR M07/M08 A3015 RMK AO2 SLP244 T10671078 11028 21067 400001067 50006 FZRANO

EXPIRED METARs :
  • 180456Z AUTO 30008KT 10SM CLR M06/M07 A3018 RMK AO2 SLP250 T10611072 FZRANO
  • 180356Z AUTO 31010KT 10SM CLR M06/M07 A3016 RMK AO2 SLP246 T10561072 FZRANO

TAF N/A



MET'MAP, your aeronautical weather chart ! - Copyright ORBIFLY December 2007 - Disclaimer

ORBIFLY MET'MAP TEAM :

Programming & Development : Alexandra Zaïnal
Concept & original design : Baudouin d'Aumeries
Assistance for programming : Marc-Olivier Méhu
Technical & hardware support : Manuel Goepfert

Contact : metmap@orbifly.com




SOURCES & CREDITS :

   NOAA       Earth
Advisory